User: anonymous   Login
Location: Unspecified
(0.0000°N, 0.0000°E)
Time: 08:13:03
(UTC+01:00)
Language:

Cosmos 1263 Rocket - Orbit

View from above orbital plane
View from above orbital plane
View from above satellite
View from above satellite

Ground track
Ground track

The orbit data is extracted from the following two-line orbital elements,

1 12389U 81033B   14352.50864197  .00079363  00000-0  81675-3 0  1836
2 12389 082.8687 287.9912 0158222 163.7760 320.3406 15.50464460738092
Epoch (UTC): 18 December 2014 12:12:26
Eccentricity: 0.0158222
inclination: 82.8687°
perigee height: 308 km
apogee height: 523 km
right ascension of ascending node: 287.9912°
argument of perigee: 163.7760°
revolutions per day: 15.50464460
mean anomaly at epoch: 320.3406°
orbit number at epoch: 73809

The dashed part of the orbit path shows where the satellite is in the earth's shadow,  

DLR